{"data":{"norad_id":41194,"intl_designator":"2015-083A","name":"GAOFEN-4","alt_names":[],"object_type":"PAYLOAD","status":"ACTIVE","operator":null,"country":"PRC","launch_date":"2015-12-28","launch_site_code":"XICLF","launch_vehicle":null,"mission":null,"orbit_class":"UNKNOWN","rcs_meters":22.1298,"size_class":null,"mass_kg":null,"dimensions":null,"purposes":["comms","earth_obs"],"wikipedia_slug":null,"has_3d_model":false,"image_url":null,"decayed_at":null,"tle_current":{"epoch":"2026-09-20T02:01:36.720192Z","epoch_age_seconds":50400,"freshness":"FRESH","line1":"1 41194U 15083A   26263.08445278 -.00000339  00000+0  00000+0 0  9997","line2":"2 41194   0.5954  83.2428 0003208 134.1754 277.6826  1.00274572 39489","mean_motion":1.00274572,"eccentricity":0.0003208,"inclination_deg":0.5954,"raan_deg":83.2428,"arg_perigee_deg":134.1754,"mean_anomaly_deg":277.6826,"bstar":0,"rev_number":3948,"period_min":1436.0569896025,"perigee_km":35772.287486637,"apogee_km":35799.339877394,"semimajor_km":42163.950682016,"source":"CELESTRAK","updated_at":"2026-09-20T09:00:35.222489Z"}}}